Terminal Aerodrome Forecast
Issued by NWS

Home | Current Version | Previous Version | Text Only | Print | Product List | Glossary On
Versions: 1 2 3 4 5 6 7 8 9 10 11 12
000
FTUS46 KSGX 302320
TAFPSP
TAF
KPSP 302320Z 3100/3124 10010KT P6SM VCTS SCT080CB
     FM310700 VRB05KT P6SM SCT120
     FM312100 13010KT P6SM SKC=

USA.gov is the U.S. government's official web portal to all federal, state and local government web resources and services.